Regional Weather Roundup
Issued by NWS

Home | Current Version | Previous Version | Graphics & Text | Print | Product List | Glossary On
Versions: 1 2 3 4 5 6 7 8 9 10 11 12 13 14 15 16 17 18 19 20 21 22 23 24 25 26 27 28 29 30 31 32 33 34 35 36 37 38 39 40 41 42 43 44 45 46 47 48 49 50
000
ASUS43 KBIS 260901
RWRND

NORTH DAKOTA REGIONAL WEATHER ROUNDUP
NATIONAL WEATHER SERVICE BISMARCK ND
400 AM CDT TUE MAY 26 2015

NOTE: "FAIR" INDICATES FEW OR NO CLOUDS BELOW 12,000 FEET WITH NO
SIGNIFICANT WEATHER AND/OR OBSTRUCTIONS TO VISIBILITY.


NDZ001>003-009>011-017-261000-
NORTHWEST NORTH DAKOTA

CITY           SKY/WX    TMP DP  RH WIND       PRES   REMARKS
WILLISTON      CLEAR     48  46  93 SW5       29.92R
MINOT          CLEAR     59  46  62 W13       29.86R
MINOT AFB      CLEAR     55  52  89 W9        29.85R
$$

NDZ018>021-031>035-040>046-261000-
SOUTHWEST NORTH DAKOTA

CITY           SKY/WX    TMP DP  RH WIND       PRES   REMARKS
BISMARCK       PTCLDY    52  50  93 W7        29.90F
DICKINSON      CLEAR     46  43  89 W7        29.92S
GARRISON         N/A     52  47  83 W9        29.89S
HETTINGER ARPT FOG       41  40  96 W3        29.96S VSB 1/2
$$

NDZ004>008-012>016-024-026-027-054-261000-
NORTHEAST NORTH DAKOTA

CITY           SKY/WX    TMP DP  RH WIND       PRES   REMARKS
GRAND FORKS    CLEAR     54  49  83 S8        29.80F
GRND FRKS AFB  CLEAR     57  50  79 SW7       29.80F
DEVILS LAKE    PTCLDY    57  46  67 W7        29.80F
$$

NDZ022-023-025-028>030-036>039-047>053-261000-
SOUTHEAST NORTH DAKOTA

CITY           SKY/WX    TMP DP  RH WIND       PRES   REMARKS
FARGO          MOCLDY    50  48  93 S6        29.85F
JAMESTOWN      PTCLDY    53  51  93 S3        29.83F
$$




USA.gov is the U.S. government's official web portal to all federal, state and local government web resources and services.